Location: Chanteloup
(48.8560°N, 2.7390°E)
Time: 22:10:15
(UTC+00:00)

Cosmos 2322 Rocket - Pass Details

Date: 07 June 2022
Orbit: 833 x 851 km, 71.0° (Epoch: 06 July)

Event Time Altitude Azimuth Distance (km) Brightness Sun altitude
Rises 02:33:33 0° 335° (NNW) 3,396 5.7 -9.4°
Reaches altitude 10° 02:37:27 10° 2° (N) 2,462 5.5 -9.0°
Maximum altitude 02:40:09 13° 30° (NNE) 2,225 5.9 -8.8°
Drops below altitude 10° 02:42:51 10° 59° (ENE) 2,464 6.0 -8.5°
Sets 02:46:44 0° 86° (E) 3,400 6.1 -8.1°
